Regional Weather Roundup
Issued by NWS

Home | Current Version | Previous Version | Text Only | Print | Product List | Glossary On
Versions: 1 2 3 4 5 6 7 8 9 10 11 12 13 14 15 16 17 18 19 20 21 22 23 24 25 26 27 28 29 30 31 32 33 34 35 36 37 38 39 40 41 42 43 44 45 46 47 48 49 50
000
ASUS42 KKEY 011410
RWRKEY

FLORIDA REGIONAL WEATHER ROUNDUP FOR THE FLORIDA KEYS
NATIONAL WEATHER SERVICE KEY WEST FLORIDA
1000 AM EDT WED OCT 01 2014

...SOUTH FLORIDA AND THE KEYS...

CITY           SKY/WX    TMP DP  RH WIND       PRES   REMARKS
FORT MYERS     MOSUNNY   80  77  90 W7        29.94R
SW REGIONAL AP HVY RAIN  80  77  90 W3        29.95R FOG
NAPLES         MOSUNNY   81  76  84 CALM      29.95R
MIAMI          MOSUNNY   86  75  69 W9        29.96R HX  95
WEST KENDALL   SUNNY     86  76  71 SW9       29.96R HX  96
HOMESTEAD      NOT AVBL
MARATHON       SUNNY     87  78  74 VRB3      29.96R HX 100
BOCA CHICA NAS MOSUNNY   86  76  71 SW9       29.96R HX  96
KEY WEST INTL  MOSUNNY   85  77  77 S9        29.96R HX  95

...INTERNATIONAL WEATHER...

CITY           SKY/WX    TMP DP  RH WIND       PRES   REMARKS
NASSAU BAHAMAS PTSUNNY   86  75  70 W9        29.97R HX  95
CANCUN MEXICO  MOSUNNY   86  79  79 SE7       29.93R HX  99
COZUMEL MEXICO MOSUNNY   81  77  89 SE5       29.93R

ADJACENT COASTAL WATERS...

STATION/POSITION TIME  SKY/WX   TEMP    WIND        PRES    WAVE
                                AIR SEA DIR/SP/G            HT/PER
                 (UTC)          (F)     (DEG/KT/KT) (MB)    (FT/S)
PULASKI SHOAL LI 1300            84     220/  7/  8 1014.1R
SAND KEY         1337            83     210/  8/ 10 1014.5R
SOMBRERO KEY     1400            84     230/  9/ 10 1015.2R
LONG KEY         1300            84 85  240/ 10/ 11 1014.9R
MOLASSES REEF    1400            83 85  230/ 10/ 11 1014.5R
FOWEY ROCKS      1400            85 84  250/  8/  8 1014.7R
Buoy 42080       NOT AVBL

$$


USA.gov is the U.S. government's official web portal to all federal, state and local government web resources and services.